Portada
METAR-TAF:

METAR-TAF

Aeropuertos :

Aeródromo de Teruel

Teruel, España

latitud: 40-24-43N, longitud: 01-13-03W, altitud: 1030 m

Observación

El informe se hizo hace 21 minutos, a las 03:00 UTC
Viento 4 kt del sur-sureste, variando entre este-sureste y sur-suroeste
Temperatura 12°C
Humedad 67%
Presión 1016 hPa
Visibilidad: 3000 m
lluvia fuerte, tormenta en las proximidades

METAR: LETL 250300Z AUTO 16004KT 110V200 3000 +RA VCTS ///CB 12/06 Q1016

Hora: 05:21 (03:21 UTC)


TAF: falta

Observaciones y pronósticos meteorológicos de más de 4000 aeropuertos (mensajes METAR y TAF).

Los puntos amarillos y rojos representan las estaciones disponibles.

Ponga el ratón en el punto deseado para ver el nombre de la estación.

Haga clic para ver las observaciones y los pronósticos meteorológicos.

Para cambiar el mapa : haga clic en los botones verdes con una cruz de color negro para hacer un zoom, en el botón verde con un guión para alejar o en las flechas verdes para mapas adyacentes.


METAR-TAF: